Time,TemperatureF,DewpointF,PressureIn,WindDirection,WindDirectionDegrees,WindSpeedMPH,WindSpeedGustMPH,Humidity,HourlyPrecipIn,Conditions,Clouds,dailyrainin,SolarRadiationWatts/m^2,SoftwareType,DateUTC
2013-08-28 00:00:00,78.4,74.9,28.96,NNW,329,4.0,-999.0,89,0.00,,,0.00,0,WeatherHawk,2013-08-28 05:00:00,
2013-08-28 00:05:00,78.3,74.4,28.95,WNW,299,0.0,-999.0,88,0.00,,,0.00,0,WeatherHawk,2013-08-28 05:05:00,
2013-08-28 00:10:00,78.8,74.6,28.96,NE,39,0.0,-999.0,87,0.00,,,0.00,0,WeatherHawk,2013-08-28 05:10:00,
2013-08-28 00:15:00,77.4,73.5,28.96,SSW,205,2.0,-999.0,88,0.00,,,0.00,0,WeatherHawk,2013-08-28 05:15:00,
2013-08-28 00:20:00,77.8,74.3,28.95,SW,220,2.0,-999.0,89,0.00,,,0.00,0,WeatherHawk,2013-08-28 05:20:00,
2013-08-28 00:25:00,77.1,73.6,28.95,SW,224,3.0,-999.0,89,0.00,,,0.00,0,WeatherHawk,2013-08-28 05:25:00,
2013-08-28 00:30:00,76.5,73.4,28.96,West,278,2.0,-999.0,90,0.00,,,0.00,0,WeatherHawk,2013-08-28 05:30:00,
2013-08-28 00:35:00,76.6,74.1,28.96,West,260,2.0,-999.0,92,0.00,,,0.00,0,WeatherHawk,2013-08-28 05:35:00,
2013-08-28 00:40:00,76.1,73.6,28.95,WSW,248,0.0,-999.0,92,0.00,,,0.00,0,WeatherHawk,2013-08-28 05:40:00,
2013-08-28 00:45:00,76.8,74.7,28.96,WSW,248,0.0,-999.0,93,0.00,,,0.00,0,WeatherHawk,2013-08-28 05:45:00,
2013-08-28 00:50:00,76.7,74.5,28.97,SW,222,1.0,-999.0,93,0.00,,,0.00,0,WeatherHawk,2013-08-28 05:50:00,
2013-08-28 00:55:00,77.1,74.9,28.96,SW,222,0.0,-999.0,93,0.00,,,0.00,0,WeatherHawk,2013-08-28 05:55:00,
2013-08-28 01:00:00,76.2,74.0,28.96,WSW,251,0.0,-999.0,93,0.00,,,0.00,0,WeatherHawk,2013-08-28 06:00:00,
2013-08-28 01:05:00,77.1,75.2,28.95,WSW,251,0.0,-999.0,94,0.00,,,0.00,0,WeatherHawk,2013-08-28 06:05:00,
2013-08-28 01:10:00,76.5,74.3,28.95,WSW,251,0.0,-999.0,93,0.00,,,0.00,0,WeatherHawk,2013-08-28 06:10:00,
2013-08-28 01:15:00,76.7,74.8,28.96,WSW,251,0.0,-999.0,94,0.00,,,0.00,0,WeatherHawk,2013-08-28 06:15:00,
2013-08-28 01:20:00,77.0,75.1,28.95,SW,227,2.0,-999.0,94,0.00,,,0.00,0,WeatherHawk,2013-08-28 06:20:00,
2013-08-28 01:25:00,76.9,75.1,28.95,SW,222,0.0,-999.0,94,0.00,,,0.00,0,WeatherHawk,2013-08-28 06:25:00,
2013-08-28 01:30:00,76.2,74.3,28.95,SW,222,0.0,-999.0,94,0.00,,,0.00,0,WeatherHawk,2013-08-28 06:30:00,
2013-08-28 01:35:00,76.4,75.1,28.95,SW,222,2.0,-999.0,96,0.00,,,0.00,0,WeatherHawk,2013-08-28 06:35:00,
2013-08-28 01:40:00,75.8,74.6,28.95,WSW,247,2.0,-999.0,96,0.00,,,0.00,1,WeatherHawk,2013-08-28 06:40:00,
2013-08-28 01:45:00,75.5,74.3,28.94,SW,234,0.0,-999.0,96,0.00,,,0.00,0,WeatherHawk,2013-08-28 06:45:00,
2013-08-28 01:50:00,76.4,75.4,28.95,SW,218,2.0,-999.0,97,0.00,,,0.00,0,WeatherHawk,2013-08-28 06:50:00,
2013-08-28 01:55:00,75.9,74.6,28.95,SW,226,0.0,-999.0,96,0.00,,,0.00,0,WeatherHawk,2013-08-28 06:55:00,
2013-08-28 02:00:00,75.4,74.2,28.95,WSW,241,1.0,-999.0,96,0.00,,,0.00,0,WeatherHawk,2013-08-28 07:00:00,
2013-08-28 02:05:00,75.2,74.3,28.95,SW,224,0.0,-999.0,97,0.00,,,0.00,0,WeatherHawk,2013-08-28 07:05:00,
2013-08-28 02:10:00,75.3,74.4,28.95,WSW,241,0.0,-999.0,97,0.00,,,0.00,0,WeatherHawk,2013-08-28 07:10:00,
2013-08-28 02:15:00,74.6,73.7,28.95,WNW,282,0.0,-999.0,97,0.00,,,0.00,0,WeatherHawk,2013-08-28 07:15:00,
2013-08-28 02:20:00,75.1,74.5,28.96,NW,316,1.0,-999.0,98,0.00,,,0.00,0,WeatherHawk,2013-08-28 07:20:00,
2013-08-28 02:25:00,74.8,74.2,28.95,NW,317,0.0,-999.0,98,0.00,,,0.00,0,WeatherHawk,2013-08-28 07:25:00,
2013-08-28 02:30:00,74.8,74.2,28.95,WSW,254,0.0,-999.0,98,0.00,,,0.00,0,WeatherHawk,2013-08-28 07:30:00,
2013-08-28 02:35:00,74.3,73.7,28.95,West,271,0.0,-999.0,98,0.00,,,0.00,0,WeatherHawk,2013-08-28 07:35:00,
2013-08-28 02:40:00,74.4,74.1,28.95,West,271,1.0,-999.0,99,0.00,,,0.00,0,WeatherHawk,2013-08-28 07:40:00,
2013-08-28 02:45:00,74.2,73.9,28.96,West,276,0.0,-999.0,99,0.00,,,0.00,0,WeatherHawk,2013-08-28 07:45:00,
2013-08-28 02:50:00,74.0,74.0,28.95,West,276,0.0,-999.0,100,0.00,,,0.00,0,WeatherHawk,2013-08-28 07:50:00,
2013-08-28 02:55:00,74.0,74.0,28.96,West,276,0.0,-999.0,100,0.00,,,0.00,0,WeatherHawk,2013-08-28 07:55:00,
2013-08-28 03:00:00,74.3,74.3,28.96,West,276,0.0,-999.0,100,0.00,,,0.00,0,WeatherHawk,2013-08-28 08:00:00,
2013-08-28 03:05:00,74.3,74.3,28.96,West,276,0.0,-999.0,100,0.00,,,0.00,0,WeatherHawk,2013-08-28 08:05:00,
2013-08-28 03:10:00,74.5,74.5,28.97,West,276,0.0,-999.0,100,0.00,,,0.00,0,WeatherHawk,2013-08-28 08:10:00,
2013-08-28 03:15:00,75.0,75.0,28.96,West,276,0.0,-999.0,100,0.00,,,0.00,0,WeatherHawk,2013-08-28 08:15:00,
2013-08-28 03:20:00,74.2,74.2,28.97,West,276,0.0,-999.0,100,0.00,,,0.00,0,WeatherHawk,2013-08-28 08:20:00,
2013-08-28 03:25:00,74.6,74.6,28.97,NW,317,0.0,-999.0,100,0.00,,,0.00,0,WeatherHawk,2013-08-28 08:25:00,
2013-08-28 03:30:00,74.9,74.9,28.97,North,351,0.0,-999.0,100,0.00,,,0.00,0,WeatherHawk,2013-08-28 08:30:00,
2013-08-28 03:35:00,74.8,74.8,28.97,North,4,0.0,-999.0,100,0.00,,,0.00,0,WeatherHawk,2013-08-28 08:35:00,
2013-08-28 03:40:00,73.9,73.6,28.98,North,4,0.0,-999.0,99,0.00,,,0.00,0,WeatherHawk,2013-08-28 08:40:00,
2013-08-28 03:45:00,74.5,74.5,28.98,North,4,0.0,-999.0,100,0.00,,,0.00,0,WeatherHawk,2013-08-28 08:45:00,
2013-08-28 03:50:00,75.0,74.4,28.97,NNW,346,2.0,-999.0,98,0.00,,,0.00,1,WeatherHawk,2013-08-28 08:50:00,
2013-08-28 03:55:00,75.2,74.3,28.98,North,3,2.0,-999.0,97,0.00,,,0.00,0,WeatherHawk,2013-08-28 08:55:00,
2013-08-28 04:00:00,75.1,73.9,28.98,North,7,1.0,-999.0,96,0.00,,,0.00,1,WeatherHawk,2013-08-28 09:00:00,
2013-08-28 04:05:00,74.7,73.1,28.98,ENE,59,4.0,-999.0,95,0.00,,,0.00,0,WeatherHawk,2013-08-28 09:05:00,
2013-08-28 04:10:00,74.9,73.3,28.98,North,6,6.0,-999.0,95,0.00,,,0.00,0,WeatherHawk,2013-08-28 09:10:00,
2013-08-28 04:15:00,74.7,73.5,28.98,North,7,6.0,-999.0,96,0.00,,,0.00,0,WeatherHawk,2013-08-28 09:15:00,
2013-08-28 04:20:00,74.7,73.4,28.99,NNE,18,2.0,-999.0,96,0.00,,,0.00,1,WeatherHawk,2013-08-28 09:20:00,
2013-08-28 04:25:00,74.6,73.4,28.98,NNE,31,1.0,-999.0,96,0.00,,,0.00,0,WeatherHawk,2013-08-28 09:25:00,
2013-08-28 04:30:00,74.6,73.4,28.99,NNE,24,2.0,-999.0,96,0.00,,,0.00,1,WeatherHawk,2013-08-28 09:30:00,
2013-08-28 04:35:00,74.6,73.1,28.99,NNE,24,3.0,-999.0,95,0.00,,,0.00,0,WeatherHawk,2013-08-28 09:35:00,
2013-08-28 04:40:00,74.7,73.2,29.00,NE,49,4.0,-999.0,95,0.00,,,0.00,0,WeatherHawk,2013-08-28 09:40:00,
2013-08-28 04:45:00,74.8,73.3,29.00,NE,41,2.0,-999.0,95,0.00,,,0.00,0,WeatherHawk,2013-08-28 09:45:00,
2013-08-28 04:50:00,74.7,73.2,29.00,North,6,0.0,-999.0,95,0.00,,,0.00,0,WeatherHawk,2013-08-28 09:50:00,
2013-08-28 04:55:00,74.8,73.0,29.00,NNE,15,4.0,-999.0,94,0.00,,,0.00,0,WeatherHawk,2013-08-28 09:55:00,
2013-08-28 05:00:00,74.8,73.0,29.00,North,3,1.0,-999.0,94,0.00,,,0.00,1,WeatherHawk,2013-08-28 10:00:00,
2013-08-28 05:05:00,74.8,73.0,29.00,NNE,13,3.0,-999.0,94,0.00,,,0.00,0,WeatherHawk,2013-08-28 10:05:00,
2013-08-28 05:10:00,74.7,72.9,29.00,NNE,33,0.0,-999.0,94,0.00,,,0.00,0,WeatherHawk,2013-08-28 10:10:00,
2013-08-28 05:20:00,74.8,73.2,29.00,North,1,3.0,-999.0,95,0.00,,,0.00,0,WeatherHawk,2013-08-28 10:20:00,
2013-08-28 05:25:00,74.6,73.4,29.01,NNW,332,1.0,-999.0,96,0.00,,,0.00,0,WeatherHawk,2013-08-28 10:25:00,
2013-08-28 05:30:00,74.5,73.3,29.01,ENE,59,3.0,-999.0,96,0.00,,,0.00,0,WeatherHawk,2013-08-28 10:30:00,
2013-08-28 05:35:00,74.6,73.4,29.01,NE,50,6.0,-999.0,96,0.00,,,0.00,1,WeatherHawk,2013-08-28 10:35:00,
2013-08-28 05:40:00,74.7,73.4,29.02,NE,50,4.0,-999.0,96,0.00,,,0.00,0,WeatherHawk,2013-08-28 10:40:00,
2013-08-28 05:45:00,74.8,73.3,29.01,North,1,1.0,-999.0,95,0.00,,,0.00,1,WeatherHawk,2013-08-28 10:45:00,
2013-08-28 05:50:00,74.8,73.3,29.02,NNE,26,1.0,-999.0,95,0.00,,,0.00,0,WeatherHawk,2013-08-28 10:50:00,
2013-08-28 05:55:00,74.8,73.3,29.02,NNE,29,1.0,-999.0,95,0.00,,,0.00,0,WeatherHawk,2013-08-28 10:55:00,
2013-08-28 06:00:00,74.9,73.1,29.02,North,0,2.0,-999.0,94,0.00,,,0.00,0,WeatherHawk,2013-08-28 11:00:00,
2013-08-28 06:05:00,74.9,73.1,29.03,NE,40,2.0,-999.0,94,0.00,,,0.00,0,WeatherHawk,2013-08-28 11:05:00,
2013-08-28 06:10:00,74.8,73.3,29.02,NE,40,4.0,-999.0,95,0.00,,,0.00,0,WeatherHawk,2013-08-28 11:10:00,
2013-08-28 06:15:00,74.3,73.1,29.04,NE,50,4.0,-999.0,96,0.00,,,0.00,0,WeatherHawk,2013-08-28 11:15:00,
2013-08-28 06:20:00,74.3,73.0,29.03,ENE,59,3.0,-999.0,96,0.00,,,0.00,1,WeatherHawk,2013-08-28 11:20:00,
2013-08-28 06:25:00,74.2,73.0,29.04,NE,49,3.0,-999.0,96,0.00,,,0.00,3,WeatherHawk,2013-08-28 11:25:00,
2013-08-28 06:30:00,74.2,72.6,29.05,NNE,16,2.0,-999.0,95,0.00,,,0.00,4,WeatherHawk,2013-08-28 11:30:00,
2013-08-28 06:35:00,74.0,72.1,29.04,East,85,4.0,-999.0,94,0.00,,,0.00,5,WeatherHawk,2013-08-28 11:35:00,
2013-08-28 06:40:00,73.9,72.0,29.05,NE,51,6.0,-999.0,94,0.00,,,0.00,4,WeatherHawk,2013-08-28 11:40:00,
2013-08-28 06:45:00,73.9,71.8,29.05,NE,42,3.0,-999.0,93,0.00,,,0.00,7,WeatherHawk,2013-08-28 11:45:00,
2013-08-28 06:50:00,73.8,71.3,29.06,East,84,3.0,-999.0,92,0.00,,,0.00,6,WeatherHawk,2013-08-28 11:50:00,
2013-08-28 06:55:00,72.9,71.3,29.06,East,79,6.0,-999.0,95,0.00,,,0.00,9,WeatherHawk,2013-08-28 11:55:00,
2013-08-28 07:00:00,72.5,71.3,29.06,ENE,67,7.0,-999.0,96,0.00,,,0.00,9,WeatherHawk,2013-08-28 12:00:00,
2013-08-28 07:05:00,72.6,71.4,29.06,ENE,78,6.0,-999.0,96,0.00,,,0.00,12,WeatherHawk,2013-08-28 12:05:00,
2013-08-28 07:10:00,72.4,71.2,29.06,ENE,76,5.0,-999.0,96,0.00,,,0.00,10,WeatherHawk,2013-08-28 12:10:00,
2013-08-28 07:15:00,72.4,71.2,29.06,ENE,74,4.0,-999.0,96,0.00,,,0.00,13,WeatherHawk,2013-08-28 12:15:00,
2013-08-28 07:20:00,72.1,70.9,29.07,ENE,66,4.0,-999.0,96,0.00,,,0.00,15,WeatherHawk,2013-08-28 12:20:00,
2013-08-28 07:25:00,72.0,70.8,29.07,NNE,31,6.0,-999.0,96,0.00,,,0.00,19,WeatherHawk,2013-08-28 12:25:00,
2013-08-28 07:30:00,71.8,70.6,29.07,East,89,8.0,-999.0,96,0.00,,,0.00,22,WeatherHawk,2013-08-28 12:30:00,
2013-08-28 07:35:00,71.8,70.3,29.07,ENE,70,9.0,-999.0,95,0.00,,,0.00,37,WeatherHawk,2013-08-28 12:35:00,
2013-08-28 07:40:00,71.4,69.9,29.07,East,79,9.0,-999.0,95,0.00,,,0.00,26,WeatherHawk,2013-08-28 12:40:00,
2013-08-28 07:45:00,71.8,70.6,29.08,ENE,74,9.0,-999.0,96,0.00,,,0.00,26,WeatherHawk,2013-08-28 12:45:00,
2013-08-28 07:50:00,71.7,70.2,29.07,ENE,74,5.0,-999.0,95,0.00,,,0.00,62,WeatherHawk,2013-08-28 12:50:00,
2013-08-28 07:55:00,72.1,70.3,29.07,ENE,59,4.0,-999.0,94,0.00,,,0.00,56,WeatherHawk,2013-08-28 12:55:00,
2013-08-28 08:00:00,72.4,70.2,29.08,East,81,5.0,-999.0,93,0.00,,,0.00,73,WeatherHawk,2013-08-28 13:00:00,
2013-08-28 08:05:00,71.9,69.7,29.08,East,79,4.0,-999.0,93,0.00,,,0.00,51,WeatherHawk,2013-08-28 13:05:00,
2013-08-28 08:10:00,72.0,69.8,29.07,East,79,7.0,-999.0,93,0.00,,,0.00,34,WeatherHawk,2013-08-28 13:10:00,
2013-08-28 08:15:00,71.3,69.2,29.07,ENE,78,7.0,-999.0,93,0.00,,,0.00,45,WeatherHawk,2013-08-28 13:15:00,
2013-08-28 08:20:00,72.1,69.9,29.08,ENE,78,5.0,-999.0,93,0.00,,,0.00,58,WeatherHawk,2013-08-28 13:20:00,
2013-08-28 08:25:00,71.8,69.4,29.08,ENE,64,6.0,-999.0,92,0.00,,,0.00,54,WeatherHawk,2013-08-28 13:25:00,
2013-08-28 08:30:00,71.7,69.2,29.08,ENE,68,7.0,-999.0,92,0.00,,,0.00,80,WeatherHawk,2013-08-28 13:30:00,
2013-08-28 08:35:00,71.4,68.9,29.08,ENE,69,6.0,-999.0,92,0.00,,,0.00,89,WeatherHawk,2013-08-28 13:35:00,
2013-08-28 08:40:00,71.4,69.3,29.09,NE,51,9.0,-999.0,93,0.00,,,0.00,72,WeatherHawk,2013-08-28 13:40:00,
2013-08-28 08:45:00,71.1,69.3,29.08,ENE,74,6.0,-999.0,94,0.00,,,0.00,87,WeatherHawk,2013-08-28 13:45:00,
2013-08-28 08:50:00,71.6,70.0,29.08,ENE,64,7.0,-999.0,95,0.00,,,0.00,111,WeatherHawk,2013-08-28 13:50:00,
2013-08-28 08:55:00,71.2,69.4,29.09,ENE,69,7.0,-999.0,94,0.00,,,0.00,112,WeatherHawk,2013-08-28 13:55:00,
2013-08-28 09:00:00,71.5,69.7,29.08,ENE,77,7.0,-999.0,94,0.00,,,0.00,127,WeatherHawk,2013-08-28 14:00:00,
2013-08-28 09:05:00,71.9,69.7,29.09,East,92,7.0,-999.0,93,0.00,,,0.00,163,WeatherHawk,2013-08-28 14:05:00,
2013-08-28 09:10:00,72.3,68.9,29.08,ENE,61,5.0,-999.0,89,0.00,,,0.00,195,WeatherHawk,2013-08-28 14:10:00,
2013-08-28 09:15:00,72.6,68.8,29.09,ENE,74,4.0,-999.0,88,0.00,,,0.00,184,WeatherHawk,2013-08-28 14:15:00,
2013-08-28 09:20:00,73.1,68.3,29.09,ENE,67,3.0,-999.0,85,0.00,,,0.00,165,WeatherHawk,2013-08-28 14:20:00,
2013-08-28 09:25:00,73.2,68.0,29.09,ENE,63,3.0,-999.0,84,0.00,,,0.00,178,WeatherHawk,2013-08-28 14:25:00,
2013-08-28 09:30:00,73.2,67.7,29.09,East,79,3.0,-999.0,83,0.00,,,0.00,143,WeatherHawk,2013-08-28 14:30:00,
2013-08-28 09:35:00,73.2,67.0,29.10,East,90,4.0,-999.0,81,0.00,,,0.00,192,WeatherHawk,2013-08-28 14:35:00,
2013-08-28 09:40:00,73.3,66.8,29.09,ENE,72,5.0,-999.0,80,0.00,,,0.00,148,WeatherHawk,2013-08-28 14:40:00,
2013-08-28 09:45:00,73.1,66.9,29.10,ENE,75,5.0,-999.0,81,0.00,,,0.00,141,WeatherHawk,2013-08-28 14:45:00,
2013-08-28 09:50:00,73.5,67.3,29.09,ENE,58,6.0,-999.0,81,0.00,,,0.00,152,WeatherHawk,2013-08-28 14:50:00,
2013-08-28 09:55:00,73.6,67.1,29.10,ENE,73,6.0,-999.0,80,0.00,,,0.00,158,WeatherHawk,2013-08-28 14:55:00,
2013-08-28 10:00:00,73.8,66.5,29.10,NNE,31,6.0,-999.0,78,0.00,,,0.00,135,WeatherHawk,2013-08-28 15:00:00,
2013-08-28 10:05:00,73.9,67.3,29.11,North,1,3.0,-999.0,80,0.00,,,0.00,123,WeatherHawk,2013-08-28 15:05:00,
2013-08-28 10:10:00,73.6,66.7,29.10,ENE,74,2.0,-999.0,79,0.00,,,0.00,137,WeatherHawk,2013-08-28 15:10:00,
2013-08-28 10:15:00,74.2,67.3,29.11,NE,35,3.0,-999.0,79,0.00,,,0.00,167,WeatherHawk,2013-08-28 15:15:00,
2013-08-28 10:20:00,74.4,66.7,29.10,ENE,63,2.0,-999.0,77,0.00,,,0.00,191,WeatherHawk,2013-08-28 15:20:00,
2013-08-28 10:25:00,74.3,66.7,29.10,NE,42,3.0,-999.0,77,0.00,,,0.00,175,WeatherHawk,2013-08-28 15:25:00,
2013-08-28 10:30:00,73.8,65.7,29.10,ENE,60,3.0,-999.0,76,0.00,,,0.00,141,WeatherHawk,2013-08-28 15:30:00,
2013-08-28 10:35:00,74.4,66.7,29.11,NNE,21,2.0,-999.0,77,0.00,,,0.00,113,WeatherHawk,2013-08-28 15:35:00,
2013-08-28 10:40:00,73.5,65.9,29.11,ENE,73,5.0,-999.0,77,0.00,,,0.00,120,WeatherHawk,2013-08-28 15:40:00,
2013-08-28 10:45:00,73.7,67.5,29.12,NE,54,5.0,-999.0,81,0.00,,,0.00,148,WeatherHawk,2013-08-28 15:45:00,
2013-08-28 10:50:00,73.5,67.3,29.12,East,87,5.0,-999.0,81,0.00,,,0.00,148,WeatherHawk,2013-08-28 15:50:00,
2013-08-28 11:25:00,76.8,65.0,29.11,NNE,20,0.0,-999.0,67,0.00,,,0.00,286,WeatherHawk,2013-08-28 16:25:00,
2013-08-28 11:30:00,75.3,62.7,29.11,NE,41,2.0,-999.0,65,0.00,,,0.00,274,WeatherHawk,2013-08-28 16:30:00,
2013-08-28 11:35:00,74.9,63.1,29.11,East,81,7.0,-999.0,67,0.00,,,0.00,272,WeatherHawk,2013-08-28 16:35:00,
2013-08-28 11:40:00,74.1,63.7,29.11,ENE,71,6.0,-999.0,70,0.00,,,0.00,274,WeatherHawk,2013-08-28 16:40:00,
2013-08-28 11:45:00,74.6,64.1,29.12,East,85,5.0,-999.0,70,0.00,,,0.00,283,WeatherHawk,2013-08-28 16:45:00,
2013-08-28 11:55:00,77.5,65.2,29.11,WNW,303,0.0,-999.0,66,0.00,,,0.00,227,WeatherHawk,2013-08-28 16:55:00,
2013-08-28 12:00:00,76.8,64.6,29.12,NNW,347,1.0,-999.0,66,0.00,,,0.00,230,WeatherHawk,2013-08-28 17:00:00,
2013-08-28 12:05:00,76.1,63.4,29.11,North,0,3.0,-999.0,65,0.00,,,0.00,263,WeatherHawk,2013-08-28 17:05:00,
2013-08-28 12:15:00,76.8,61.8,29.11,North,10,4.0,-999.0,60,0.00,,,0.00,341,WeatherHawk,2013-08-28 17:15:00,
2013-08-28 12:20:00,76.8,62.3,29.11,NW,323,2.0,-999.0,61,0.00,,,0.00,319,WeatherHawk,2013-08-28 17:20:00,
2013-08-28 12:25:00,78.3,64.6,29.11,NNW,339,3.0,-999.0,63,0.00,,,0.00,275,WeatherHawk,2013-08-28 17:25:00,
2013-08-28 12:30:00,78.2,64.1,29.11,North,7,2.0,-999.0,62,0.00,,,0.00,280,WeatherHawk,2013-08-28 17:30:00,
2013-08-28 12:35:00,76.0,62.4,29.11,NNW,343,6.0,-999.0,63,0.00,,,0.00,284,WeatherHawk,2013-08-28 17:35:00,
2013-08-28 12:40:00,77.0,63.9,29.11,North,351,7.0,-999.0,64,0.00,,,0.00,295,WeatherHawk,2013-08-28 17:40:00,
2013-08-28 12:45:00,76.5,62.5,29.12,NW,323,5.0,-999.0,62,0.00,,,0.00,311,WeatherHawk,2013-08-28 17:45:00,
2013-08-28 12:50:00,77.7,62.6,29.11,NNE,18,0.0,-999.0,60,0.00,,,0.00,344,WeatherHawk,2013-08-28 17:50:00,
2013-08-28 12:55:00,76.7,61.3,29.11,NE,36,2.0,-999.0,59,0.00,,,0.00,390,WeatherHawk,2013-08-28 17:55:00,
2013-08-28 13:00:00,77.3,60.4,29.11,NNE,31,1.0,-999.0,56,0.00,,,0.00,409,WeatherHawk,2013-08-28 18:00:00,
2013-08-28 13:05:00,77.5,60.6,29.12,SSW,201,2.0,-999.0,56,0.00,,,0.00,414,WeatherHawk,2013-08-28 18:05:00,
2013-08-28 13:15:00,79.6,63.0,29.11,West,278,1.0,-999.0,57,0.00,,,0.00,386,WeatherHawk,2013-08-28 18:15:00,
2013-08-28 13:20:00,77.1,60.7,29.12,NE,40,5.0,-999.0,57,0.00,,,0.00,363,WeatherHawk,2013-08-28 18:20:00,
2013-08-28 13:25:00,77.9,62.4,29.12,NW,322,2.0,-999.0,59,0.00,,,0.00,387,WeatherHawk,2013-08-28 18:25:00,
2013-08-28 13:30:00,79.4,62.3,29.12,North,351,2.0,-999.0,56,0.00,,,0.00,323,WeatherHawk,2013-08-28 18:30:00,
2013-08-28 13:35:00,78.4,61.3,29.12,NNW,344,4.0,-999.0,56,0.00,,,0.00,318,WeatherHawk,2013-08-28 18:35:00,
2013-08-28 13:40:00,79.5,63.4,29.12,NNW,347,1.0,-999.0,58,0.00,,,0.00,325,WeatherHawk,2013-08-28 18:40:00,
2013-08-28 13:45:00,76.7,59.3,29.12,NE,40,4.0,-999.0,55,0.00,,,0.00,324,WeatherHawk,2013-08-28 18:45:00,
2013-08-28 13:50:00,76.3,59.4,29.12,East,80,5.0,-999.0,56,0.00,,,0.00,372,WeatherHawk,2013-08-28 18:50:00,
2013-08-28 13:55:00,77.3,59.9,29.11,ENE,67,5.0,-999.0,55,0.00,,,0.00,334,WeatherHawk,2013-08-28 18:55:00,
2013-08-28 14:00:00,78.7,62.2,29.11,NE,54,2.0,-999.0,57,0.00,,,0.00,322,WeatherHawk,2013-08-28 19:00:00,
2013-08-28 14:05:00,77.4,60.5,29.11,North,8,6.0,-999.0,56,0.00,,,0.00,356,WeatherHawk,2013-08-28 19:05:00,
2013-08-28 14:10:00,78.9,60.8,29.11,NE,45,4.0,-999.0,54,0.00,,,0.00,396,WeatherHawk,2013-08-28 19:10:00,
2013-08-28 14:15:00,80.3,62.6,29.11,NNW,329,4.0,-999.0,55,0.00,,,0.00,443,WeatherHawk,2013-08-28 19:15:00,
2013-08-28 14:20:00,78.9,58.7,29.12,NNW,329,1.0,-999.0,50,0.00,,,0.00,452,WeatherHawk,2013-08-28 19:20:00,
2013-08-28 14:25:00,79.2,59.5,29.11,North,11,6.0,-999.0,51,0.00,,,0.00,542,WeatherHawk,2013-08-28 19:25:00,
2013-08-28 14:30:00,78.9,59.7,29.11,NNE,14,5.0,-999.0,52,0.00,,,0.00,489,WeatherHawk,2013-08-28 19:30:00,
2013-08-28 14:35:00,80.0,60.3,29.11,NE,51,4.0,-999.0,51,0.00,,,0.00,404,WeatherHawk,2013-08-28 19:35:00,
2013-08-28 14:40:00,80.5,60.1,29.11,North,4,3.0,-999.0,50,0.00,,,0.00,433,WeatherHawk,2013-08-28 19:40:00,
2013-08-28 14:45:00,79.5,59.2,29.12,NNE,12,0.0,-999.0,50,0.00,,,0.00,414,WeatherHawk,2013-08-28 19:45:00,
2013-08-28 14:50:00,79.2,58.4,29.11,ENE,72,3.0,-999.0,49,0.00,,,0.00,382,WeatherHawk,2013-08-28 19:50:00,
2013-08-28 14:55:00,77.8,57.1,29.11,North,5,6.0,-999.0,49,0.00,,,0.00,377,WeatherHawk,2013-08-28 19:55:00,
2013-08-28 15:00:00,79.7,58.8,29.11,East,91,1.0,-999.0,49,0.00,,,0.00,974,WeatherHawk,2013-08-28 20:00:00,
2013-08-28 15:05:00,82.1,58.6,29.10,NE,51,3.0,-999.0,45,0.00,,,0.00,563,WeatherHawk,2013-08-28 20:05:00,
2013-08-28 15:10:00,81.4,57.4,29.12,WSW,243,3.0,-999.0,44,0.00,,,0.00,348,WeatherHawk,2013-08-28 20:10:00,
2013-08-28 15:15:00,80.9,59.3,29.10,WNW,300,7.0,-999.0,48,0.00,,,0.00,348,WeatherHawk,2013-08-28 20:15:00,
2013-08-28 15:20:00,84.1,61.7,29.11,WSW,258,1.0,-999.0,47,0.00,,,0.00,855,WeatherHawk,2013-08-28 20:20:00,
2013-08-28 15:25:00,83.4,58.5,29.11,West,280,1.0,-999.0,43,0.00,,,0.00,562,WeatherHawk,2013-08-28 20:25:00,
2013-08-28 15:30:00,83.5,60.5,29.11,North,6,3.0,-999.0,46,0.00,,,0.00,702,WeatherHawk,2013-08-28 20:30:00,
2013-08-28 15:35:00,82.5,57.1,29.11,WNW,303,2.0,-999.0,42,0.00,,,0.00,688,WeatherHawk,2013-08-28 20:35:00,
2013-08-28 15:40:00,82.7,57.9,29.11,SE,133,6.0,-999.0,43,0.00,,,0.00,680,WeatherHawk,2013-08-28 20:40:00,
2013-08-28 15:45:00,83.6,58.7,29.11,SSE,165,6.0,-999.0,43,0.00,,,0.00,676,WeatherHawk,2013-08-28 20:45:00,
2013-08-28 15:50:00,80.7,56.7,29.10,SE,140,5.0,-999.0,44,0.00,,,0.00,664,WeatherHawk,2013-08-28 20:50:00,
2013-08-28 15:55:00,81.7,57.6,29.11,ENE,71,4.0,-999.0,44,0.00,,,0.00,635,WeatherHawk,2013-08-28 20:55:00,
2013-08-28 16:00:00,81.7,55.7,29.11,East,101,4.0,-999.0,41,0.00,,,0.00,607,WeatherHawk,2013-08-28 21:00:00,
2013-08-28 16:05:00,82.4,58.9,29.11,East,90,7.0,-999.0,45,0.00,,,0.00,596,WeatherHawk,2013-08-28 21:05:00,
2013-08-28 16:10:00,81.7,58.9,29.11,SSE,148,4.0,-999.0,46,0.00,,,0.00,588,WeatherHawk,2013-08-28 21:10:00,
2013-08-28 16:15:00,86.3,60.5,29.11,WSW,238,2.0,-999.0,42,0.00,,,0.00,566,WeatherHawk,2013-08-28 21:15:00,
2013-08-28 16:20:00,83.8,56.9,29.11,WNW,298,0.0,-999.0,40,0.00,,,0.00,565,WeatherHawk,2013-08-28 21:20:00,
2013-08-28 16:25:00,82.8,58.0,29.10,SSE,147,5.0,-999.0,43,0.00,,,0.00,548,WeatherHawk,2013-08-28 21:25:00,
2013-08-28 16:30:00,81.4,56.1,29.11,SSW,197,4.0,-999.0,42,0.00,,,0.00,543,WeatherHawk,2013-08-28 21:30:00,
2013-08-28 16:35:00,83.3,58.5,29.11,East,88,6.0,-999.0,43,0.00,,,0.00,525,WeatherHawk,2013-08-28 21:35:00,
2013-08-28 16:40:00,81.7,57.6,29.11,East,85,4.0,-999.0,44,0.00,,,0.00,516,WeatherHawk,2013-08-28 21:40:00,
2013-08-28 16:45:00,83.9,58.3,29.10,East,101,4.0,-999.0,42,0.00,,,0.00,500,WeatherHawk,2013-08-28 21:45:00,
2013-08-28 16:50:00,84.5,58.9,29.10,West,268,4.0,-999.0,42,0.00,,,0.00,522,WeatherHawk,2013-08-28 21:50:00,
2013-08-28 16:55:00,85.9,59.5,29.10,SW,230,2.0,-999.0,41,0.00,,,0.00,494,WeatherHawk,2013-08-28 21:55:00,
2013-08-28 17:00:00,84.4,58.1,29.10,WNW,301,2.0,-999.0,41,0.00,,,0.00,455,WeatherHawk,2013-08-28 22:00:00,
2013-08-28 17:05:00,83.1,58.3,29.10,East,83,0.0,-999.0,43,0.00,,,0.00,441,WeatherHawk,2013-08-28 22:05:00,
2013-08-28 17:10:00,84.6,56.1,29.10,NE,47,4.0,-999.0,38,0.00,,,0.00,421,WeatherHawk,2013-08-28 22:10:00,
2013-08-28 17:15:00,85.0,56.5,29.11,ENE,58,3.0,-999.0,38,0.00,,,0.00,419,WeatherHawk,2013-08-28 22:15:00,
2013-08-28 17:20:00,83.1,58.2,29.11,East,101,4.0,-999.0,43,0.00,,,0.00,375,WeatherHawk,2013-08-28 22:20:00,
2013-08-28 17:25:00,83.7,58.8,29.10,ENE,65,3.0,-999.0,43,0.00,,,0.00,186,WeatherHawk,2013-08-28 22:25:00,
2013-08-28 17:30:00,83.1,58.9,29.10,ESE,122,4.0,-999.0,44,0.00,,,0.00,276,WeatherHawk,2013-08-28 22:30:00,
2013-08-28 17:35:00,84.2,59.2,29.10,ENE,59,2.0,-999.0,43,0.00,,,0.00,237,WeatherHawk,2013-08-28 22:35:00,
2013-08-28 17:40:00,82.8,58.6,29.10,SE,126,3.0,-999.0,44,0.00,,,0.00,243,WeatherHawk,2013-08-28 22:40:00,
2013-08-28 17:45:00,82.4,60.2,29.10,East,85,5.0,-999.0,47,0.00,,,0.00,178,WeatherHawk,2013-08-28 22:45:00,
2013-08-28 17:50:00,83.2,62.1,29.11,SSW,209,2.0,-999.0,49,0.00,,,0.00,263,WeatherHawk,2013-08-28 22:50:00,
2013-08-28 17:55:00,82.6,60.3,29.11,South,180,3.0,-999.0,47,0.00,,,0.00,199,WeatherHawk,2013-08-28 22:55:00,
2013-08-28 18:00:00,84.1,62.3,29.11,SSW,207,2.0,-999.0,48,0.00,,,0.00,148,WeatherHawk,2013-08-28 23:00:00,
2013-08-28 18:05:00,82.4,61.3,29.11,South,184,2.0,-999.0,49,0.00,,,0.00,194,WeatherHawk,2013-08-28 23:05:00,
2013-08-28 18:10:00,82.5,61.9,29.10,SSE,150,3.0,-999.0,50,0.00,,,0.00,218,WeatherHawk,2013-08-28 23:10:00,
2013-08-28 18:20:00,83.0,63.0,29.10,SW,219,3.0,-999.0,51,0.00,,,0.00,198,WeatherHawk,2013-08-28 23:20:00,
2013-08-28 18:25:00,81.2,63.4,29.10,SW,220,3.0,-999.0,55,0.00,,,0.00,175,WeatherHawk,2013-08-28 23:25:00,
2013-08-28 18:30:00,81.6,62.8,29.10,East,98,5.0,-999.0,53,0.00,,,0.00,168,WeatherHawk,2013-08-28 23:30:00,
2013-08-28 18:35:00,82.7,63.8,29.10,SE,132,5.0,-999.0,53,0.00,,,0.00,137,WeatherHawk,2013-08-28 23:35:00,
2013-08-28 18:40:00,80.9,63.7,29.11,SSE,163,2.0,-999.0,56,0.00,,,0.00,105,WeatherHawk,2013-08-28 23:40:00,
2013-08-28 18:45:00,80.8,63.6,29.10,South,173,2.0,-999.0,56,0.00,,,0.00,100,WeatherHawk,2013-08-28 23:45:00,
2013-08-28 18:50:00,79.8,64.2,29.11,SE,146,2.0,-999.0,59,0.00,,,0.00,65,WeatherHawk,2013-08-28 23:50:00,
2013-08-28 18:55:00,80.9,66.2,29.10,ESE,102,1.0,-999.0,61,0.00,,,0.00,105,WeatherHawk,2013-08-28 23:55:00,
2013-08-28 19:00:00,80.7,65.5,29.11,East,95,4.0,-999.0,60,0.00,,,0.00,91,WeatherHawk,2013-08-29 00:00:00,
2013-08-28 19:05:00,80.6,65.4,29.10,East,85,4.0,-999.0,60,0.00,,,0.00,74,WeatherHawk,2013-08-29 00:05:00,
2013-08-28 19:10:00,80.4,65.3,29.11,East,96,4.0,-999.0,60,0.00,,,0.00,63,WeatherHawk,2013-08-29 00:10:00,
2013-08-28 19:15:00,79.5,65.3,29.10,ESE,106,3.0,-999.0,62,0.00,,,0.00,52,WeatherHawk,2013-08-29 00:15:00,
2013-08-28 19:20:00,79.2,65.5,29.11,ESE,103,3.0,-999.0,63,0.00,,,0.00,39,WeatherHawk,2013-08-29 00:20:00,
2013-08-28 19:25:00,78.7,65.5,29.11,ESE,102,3.0,-999.0,64,0.00,,,0.00,18,WeatherHawk,2013-08-29 00:25:00,
2013-08-28 19:30:00,77.3,65.0,29.11,ESE,108,3.0,-999.0,66,0.00,,,0.00,11,WeatherHawk,2013-08-29 00:30:00,
2013-08-28 19:35:00,77.2,65.8,29.10,ESE,103,3.0,-999.0,68,0.00,,,0.00,8,WeatherHawk,2013-08-29 00:35:00,
2013-08-28 19:40:00,77.1,65.7,29.11,ESE,115,1.0,-999.0,68,0.00,,,0.00,5,WeatherHawk,2013-08-29 00:40:00,
2013-08-28 19:45:00,76.5,65.6,29.11,East,98,0.0,-999.0,69,0.00,,,0.00,3,WeatherHawk,2013-08-29 00:45:00,
2013-08-28 19:50:00,76.8,66.2,29.12,East,95,2.0,-999.0,70,0.00,,,0.00,1,WeatherHawk,2013-08-29 00:50:00,
2013-08-28 19:55:00,76.3,65.8,29.12,East,99,0.0,-999.0,70,0.00,,,0.00,0,WeatherHawk,2013-08-29 00:55:00,
2013-08-28 20:00:00,74.9,64.8,29.11,ESE,107,3.0,-999.0,71,0.00,,,0.00,0,WeatherHawk,2013-08-29 01:00:00,
2013-08-28 20:05:00,75.7,66.4,29.12,East,99,2.0,-999.0,73,0.00,,,0.00,0,WeatherHawk,2013-08-29 01:05:00,
2013-08-28 20:10:00,76.5,67.2,29.12,ESE,109,2.0,-999.0,73,0.00,,,0.00,0,WeatherHawk,2013-08-29 01:10:00,
2013-08-28 20:15:00,76.0,66.7,29.12,ESE,109,1.0,-999.0,73,0.00,,,0.00,0,WeatherHawk,2013-08-29 01:15:00,
2013-08-28 20:20:00,75.1,66.2,29.13,East,95,0.0,-999.0,74,0.00,,,0.00,0,WeatherHawk,2013-08-29 01:20:00,
2013-08-28 20:25:00,75.3,66.8,29.12,East,94,0.0,-999.0,75,0.00,,,0.00,0,WeatherHawk,2013-08-29 01:25:00,
2013-08-28 20:30:00,74.5,66.5,29.13,East,94,0.0,-999.0,76,0.00,,,0.00,0,WeatherHawk,2013-08-29 01:30:00,
2013-08-28 20:35:00,74.3,66.6,29.12,East,98,2.0,-999.0,77,0.00,,,0.00,0,WeatherHawk,2013-08-29 01:35:00,
2013-08-28 20:40:00,74.1,66.8,29.13,East,92,0.0,-999.0,78,0.00,,,0.00,1,WeatherHawk,2013-08-29 01:40:00,
2013-08-28 20:45:00,74.8,67.5,29.13,East,92,0.0,-999.0,78,0.00,,,0.00,0,WeatherHawk,2013-08-29 01:45:00,
2013-08-28 20:50:00,74.7,67.0,29.14,East,92,0.0,-999.0,77,0.00,,,0.00,0,WeatherHawk,2013-08-29 01:50:00,
2013-08-28 20:55:00,74.9,67.2,29.14,East,92,0.0,-999.0,77,0.00,,,0.00,0,WeatherHawk,2013-08-29 01:55:00,
2013-08-28 21:00:00,74.4,67.1,29.14,East,92,0.0,-999.0,78,0.00,,,0.00,0,WeatherHawk,2013-08-29 02:00:00,
2013-08-28 21:05:00,74.3,67.0,29.14,East,92,0.0,-999.0,78,0.00,,,0.00,0,WeatherHawk,2013-08-29 02:05:00,
2013-08-28 21:10:00,73.3,66.4,29.14,East,92,0.0,-999.0,79,0.00,,,0.00,0,WeatherHawk,2013-08-29 02:10:00,
2013-08-28 21:15:00,73.1,66.6,29.14,SSE,163,0.0,-999.0,80,0.00,,,0.00,0,WeatherHawk,2013-08-29 02:15:00,
2013-08-28 21:20:00,72.9,67.0,29.14,SSE,163,0.0,-999.0,82,0.00,,,0.00,0,WeatherHawk,2013-08-29 02:20:00,
2013-08-28 21:25:00,72.5,66.7,29.14,SSE,163,0.0,-999.0,82,0.00,,,0.00,0,WeatherHawk,2013-08-29 02:25:00,
2013-08-28 21:30:00,72.6,67.4,29.14,SSE,163,0.0,-999.0,84,0.00,,,0.00,0,WeatherHawk,2013-08-29 02:30:00,
2013-08-28 21:35:00,73.0,67.9,29.14,SSE,163,0.0,-999.0,84,0.00,,,0.00,0,WeatherHawk,2013-08-29 02:35:00,
2013-08-28 21:40:00,72.3,67.6,29.14,SSE,163,0.0,-999.0,85,0.00,,,0.00,0,WeatherHawk,2013-08-29 02:40:00,
2013-08-28 21:45:00,71.9,67.8,29.14,SSE,163,0.0,-999.0,87,0.00,,,0.00,0,WeatherHawk,2013-08-29 02:45:00,
2013-08-28 21:50:00,70.8,66.7,29.14,ESE,102,0.0,-999.0,87,0.00,,,0.00,0,WeatherHawk,2013-08-29 02:50:00,
2013-08-28 21:55:00,71.5,67.7,29.14,ESE,102,1.0,-999.0,88,0.00,,,0.00,0,WeatherHawk,2013-08-29 02:55:00,
2013-08-28 22:00:00,71.5,67.8,29.13,ESE,102,0.0,-999.0,88,0.00,,,0.00,0,WeatherHawk,2013-08-29 03:00:00,
2013-08-28 22:05:00,71.3,67.9,29.13,East,100,3.0,-999.0,89,0.00,,,0.00,0,WeatherHawk,2013-08-29 03:05:00,
2013-08-28 22:10:00,70.8,68.0,29.13,East,89,2.0,-999.0,91,0.00,,,0.00,1,WeatherHawk,2013-08-29 03:10:00,
2013-08-28 22:15:00,70.3,67.6,29.13,East,98,2.0,-999.0,91,0.00,,,0.00,0,WeatherHawk,2013-08-29 03:15:00,
2013-08-28 22:20:00,72.7,69.9,29.13,ENE,57,3.0,-999.0,91,0.00,,,0.00,0,WeatherHawk,2013-08-29 03:20:00,
2013-08-28 22:25:00,71.6,67.9,29.13,NE,45,0.0,-999.0,88,0.00,,,0.00,0,WeatherHawk,2013-08-29 03:25:00,
2013-08-28 22:30:00,71.4,68.0,29.13,NE,36,0.0,-999.0,89,0.00,,,0.00,0,WeatherHawk,2013-08-29 03:30:00,
2013-08-28 22:35:00,71.1,67.3,29.13,West,271,0.0,-999.0,88,0.00,,,0.00,0,WeatherHawk,2013-08-29 03:35:00,
2013-08-28 22:40:00,71.7,68.3,29.13,West,271,0.0,-999.0,89,0.00,,,0.00,0,WeatherHawk,2013-08-29 03:40:00,
2013-08-28 22:45:00,70.4,67.3,29.13,WSW,241,0.0,-999.0,90,0.00,,,0.00,0,WeatherHawk,2013-08-29 03:45:00,
2013-08-28 22:50:00,71.0,67.9,29.14,WSW,241,0.0,-999.0,90,0.00,,,0.00,0,WeatherHawk,2013-08-29 03:50:00,
2013-08-28 22:55:00,70.5,68.7,29.13,WSW,241,0.0,-999.0,94,0.00,,,0.00,0,WeatherHawk,2013-08-29 03:55:00,
2013-08-28 23:00:00,70.0,67.5,29.14,WSW,241,0.0,-999.0,92,0.00,,,0.00,0,WeatherHawk,2013-08-29 04:00:00,
2013-08-28 23:05:00,70.7,69.2,29.13,WSW,241,0.0,-999.0,95,0.00,,,0.00,0,WeatherHawk,2013-08-29 04:05:00,
2013-08-28 23:10:00,69.3,66.9,29.13,WSW,241,0.0,-999.0,92,0.00,,,0.00,0,WeatherHawk,2013-08-29 04:10:00,
2013-08-28 23:15:00,68.8,66.3,29.13,SSE,168,0.0,-999.0,92,0.00,,,0.00,0,WeatherHawk,2013-08-29 04:15:00,
2013-08-28 23:25:00,69.6,68.4,29.13,SSE,168,0.0,-999.0,96,0.00,,,0.00,0,WeatherHawk,2013-08-29 04:25:00,
2013-08-28 23:30:00,70.0,68.8,29.13,SSE,168,0.0,-999.0,96,0.00,,,0.00,0,WeatherHawk,2013-08-29 04:30:00,
2013-08-28 23:35:00,69.9,69.3,29.13,East,85,0.0,-999.0,98,0.00,,,0.00,0,WeatherHawk,2013-08-29 04:35:00,
2013-08-28 23:40:00,69.6,69.0,29.13,East,85,0.0,-999.0,98,0.00,,,0.00,0,WeatherHawk,2013-08-29 04:40:00,
2013-08-28 23:45:00,69.1,67.6,29.13,East,85,0.0,-999.0,95,0.00,,,0.00,0,WeatherHawk,2013-08-29 04:45:00,
2013-08-28 23:50:00,69.8,69.2,29.13,East,85,0.0,-999.0,98,0.00,,,0.00,0,WeatherHawk,2013-08-29 04:50:00,